Ellensburg, WA
on Wednesday, February 6, 2013

Wednesday
Previous Day Next Day
Daily Summary
 ActualAverage (KYKM)Record (KYKM)
Temperature
Mean Temperature °F 34°F  
Max Temperature 45°F 44°F 60°F (1967)
Min Temperature 28°F 25°F 0°F (1985)
Degree Days
Heating Degree Days 28 30  
Month to date heating degree days 185  
Since 1 July heating degree days 3903  
Cooling Degree Days 0 0  
Month to date cooling degree days 0  
Year to date cooling degree days 0  
Moisture
Dew Point 30°F   
Average Humidity 74    
Maximum Humidity 85    
Minimum Humidity 58    
Precipitation
Precipitation 0.00 in 0.03 in 0.58 in (1996)
Month to date precipitation 0.17  
Year to date precipitation 1.31  
Snow
Snow 0.00 in 0.10 in 3.50 in (1975)
Month to date snowfall 0.7  
Year to date snowfall 6.0  
Since 1 July snowfall 19.0  
Snow Depth in   
Wind
Wind Speed 4 mph   
Max Wind Speed 7 mph   
Max Gust Speed mph   
Visibility 10 miles   
Events Rain   

Key: T is trace of precipitation, MM is missing value
Source: NWS Daily Summary
Time(PST)TemperatureDew PointHumidity Pressure Visibility Wind DirectionWind SpeedGust SpeedPrecipitationEvents Conditions
12:53 AM 33.1°F 28.0°F 82% 29.94 in 10.0 miles East 3.5 mph - N/A   Overcast
1:53 AM 33.1°F 28.0°F 82% 29.96 in 10.0 miles ENE 3.5 mph - N/A   Overcast
2:53 AM 33.1°F 28.0°F 82% 29.97 in 10.0 miles ENE 4.6 mph - 0.00 in   Overcast
4:53 AM 30.9°F 26.1°F 82% 29.99 in 10.0 miles East 3.5 mph - 0.00 in   Mostly Cloudy
5:53 AM 28.9°F 25.0°F 85% 30.01 in 5.0 miles ENE 3.5 mph - N/A   Scattered Clouds
6:53 AM 28.9°F 24.1°F 82% 30.01 in 10.0 miles East 4.6 mph - N/A   Clear
7:53 AM 30.0°F 25.0°F 82% 30.03 in 10.0 miles ENE 4.6 mph - N/A   Clear
8:53 AM 35.1°F 30.0°F 82% 30.04 in 10.0 miles ESE 3.5 mph - N/A   Clear
9:53 AM 39.0°F 33.1°F 79% 30.05 in 10.0 miles East 3.5 mph - N/A   Clear
10:53 AM 43.0°F 33.1°F 68% 30.06 in 10.0 miles East 4.6 mph - N/A   Clear
11:53 AM 44.1°F 32.0°F 63% 30.06 in 10.0 miles SE 3.5 mph - N/A   Clear
1:53 PM 45.0°F 30.9°F 58% 30.02 in 10.0 miles Calm Calm - N/A   Overcast
2:53 PM 45.0°F 30.9°F 58% 30.01 in 10.0 miles Calm Calm - N/A   Overcast
3:53 PM 45.0°F 30.9°F 58% 30.00 in 10.0 miles NE 5.8 mph - N/A   Overcast
4:53 PM 43.0°F 30.9°F 62% 29.99 in 10.0 miles ENE 5.8 mph - N/A   Overcast
5:53 PM 42.1°F 32.0°F 67% 29.99 in 10.0 miles South 3.5 mph - N/A   Overcast
6:53 PM 41.0°F 33.1°F 73% 29.98 in 10.0 miles East 5.8 mph - 0.00 in Rain Light Rain
7:53 PM 39.9°F 32.0°F 73% 29.96 in 10.0 miles ENE 6.9 mph - 0.00 in   Mostly Cloudy
8:53 PM 37.9°F 30.9°F 76% 29.95 in 10.0 miles Calm Calm - N/A   Clear
9:53 PM 37.9°F 32.0°F 79% 29.93 in 10.0 miles Calm Calm - N/A   Overcast
10:53 PM 37.0°F 30.9°F 79% 29.92 in 10.0 miles Calm Calm - N/A   Mostly Cloudy
11:53 PM 37.0°F 30.0°F 76% 29.91 in 10.0 miles NNW 4.6 mph - N/A   Overcast
Moon Phase
Feb. 06 Feb. 10 Feb. 17 Feb. 25 Mar. 04
Sunrise:07:19 AM (PST) Moon Rise:04:16 AM (PST)2/6
Sunset:05:13 PM (PST) Moon Set:01:29 PM (PST)2/6

Copyright © 2014 The Weather Underground, Inc.